Location: Madrid
(40.4000°N, 3.6830°W)
Time: 18:56:27
(UTC+01:00)

ISS - Pass Details

Date: 20 January 2020
Orbit: 415 x 422 km, 51.6° (Epoch: 23 January)

Event Time Altitude Azimuth Distance (km) Brightness Sun altitude
Rises 19:53:25 0° 224° (SW) 2,357 1.0 -18.0°
Reaches altitude 10° 19:55:31 10° 221° (SW) 1,496 -0.2 -18.4°
Maximum altitude 19:58:50 62° 140° (SE) 476 -3.7 -19.0°
Enters shadow 19:58:54 62° 132° (SE) 477 -3.8 -19.0°
